Allentown, PA

11:27 PM EDT on April 21, 2018 (GMT -0400)
Lehigh Valley International

Weather History for KABE - October, 2012

Change the Weather History Date:

Monday, October 1, 2012

  Actual Average Record
Temperature  
Mean Temperature 57 °F 58 °F  
Max Temperature 70 °F 69 °F 89 °F (1927)
Min Temperature 44 °F 47 °F 33 °F (1993)
Degree Days  
Heating Degree Days 8 8  
Month to date heating degree days 8 8  
Since 1 July heating degree days 85 123  
Cooling Degree Days 0 1  
Month to date cooling degree days 0 1  
Year to date cooling degree days 1045 751  
Growing Degree Days 8 (Base 50)    
Moisture  
Dew Point 48 °F    
Average Humidity 74    
Maximum Humidity 100    
Minimum Humidity 47    
Precipitation  
Precipitation T in 0.15 in 2.35 in (2010)
Month to date precipitation T 0.15  
Year to date precipitation 30.58 34.54  
Snow  
Snow 0.00 in 0.00 in 0.00 in ()
Month to date snowfall 0.0 0.0  
Since 1 July snowfall 0.0 0.0  
Since 1 September snowfall 0.0 0.0  
Snow Depth 0.00 in    
Sea Level Pressure  
Sea Level Pressure 29.92 in    
Wind  
Wind Speed 5 mph (WSW)    
Max Wind Speed 15 mph    
Max Gust Speed 20 mph    
Visibility 9 miles    
Events Rain    
T = Trace of Precipitation, MM = Missing Value Source: NWS Daily Summary

Daily Weather History Graph

Daily Weather History Graph

Search for Another Location

Airport or City:

Astronomy

Oct. 01, 2012 Rise Set
Actual Time 6:58 AM EDT 6:43 PM EDT
Civil Twilight 6:31 AM EDT 7:10 PM EDT
Nautical Twilight 5:59 AM EDT 7:41 PM EDT
Astronomical Twilight 5:27 AM EDT 8:13 PM EDT
Moon 7:17 PM EDT (10/1) 8:26 AM EDT (10/1)
Length of Visible Light 12h 38m
Length of Day
11h 44m
Full, 98% of the Moon is Illuminated
Oct 1
Full
Oct 8
Last Quarter
Oct 15
New
Oct 21
First Quarter
Oct 29
Full

Hourly Weather History & Observations

Time (EDT) Temp. Windchill Dew Point Humidity Pressure Visibility Wind Dir Wind Speed Gust Speed Precip Events Conditions
12:51 AM 48.9 °F - 46.9 °F 93% 29.86 in 10.0 mi WSW 4.6 mph - N/A   Clear
1:51 AM 46.0 °F 43.9 °F 45.0 °F 96% 29.87 in 9.0 mi SW 4.6 mph - N/A   Clear
2:51 AM 46.0 °F 43.9 °F 44.1 °F 93% 29.87 in 6.0 mi SW 4.6 mph - N/A   Clear
3:51 AM 45.0 °F 42.6 °F 44.1 °F 97% 29.87 in 5.0 mi SW 4.6 mph - N/A   Clear
4:51 AM 45.0 °F 41.8 °F 44.1 °F 97% 29.88 in 5.0 mi WSW 5.8 mph - N/A   Clear
5:51 AM 45.0 °F 41.2 °F 43.0 °F 93% 29.89 in 5.0 mi SW 6.9 mph - N/A   Clear
6:51 AM 46.0 °F 44.8 °F 45.0 °F 96% 29.89 in 6.0 mi West 3.5 mph - N/A   Clear
7:51 AM 48.0 °F - 46.0 °F 93% 29.91 in 6.0 mi WSW 4.6 mph - N/A   Clear
8:51 AM 53.1 °F - 48.0 °F 83% 29.93 in 10.0 mi WSW 9.2 mph - N/A   Clear
9:51 AM 57.9 °F - 48.0 °F 70% 29.93 in 10.0 mi WSW 9.2 mph - N/A   Clear
10:51 AM 63.0 °F - 50.0 °F 63% 29.94 in 10.0 mi Variable 5.8 mph - N/A   Clear
11:51 AM 64.9 °F - 48.9 °F 56% 29.93 in 10.0 mi West 10.4 mph - N/A   Partly Cloudy
12:51 PM 66.9 °F - 48.0 °F 51% 29.91 in 10.0 mi Calm Calm - N/A   Partly Cloudy
1:51 PM 68.0 °F - 48.9 °F 50% 29.91 in 10.0 mi WSW 6.9 mph - N/A   Clear
2:51 PM 69.1 °F - 48.9 °F 49% 29.90 in 10.0 mi West 9.2 mph - N/A   Clear
3:51 PM 70.0 °F - 51.1 °F 51% 29.90 in 10.0 mi WSW 10.4 mph - N/A   Clear
4:51 PM 70.0 °F - 50.0 °F 49% 29.90 in - WSW 8.1 mph - N/A   Clear
5:51 PM 66.0 °F - 48.0 °F 52% 29.92 in 10.0 mi West 3.5 mph - N/A   Clear
6:51 PM 62.1 °F - 48.9 °F 62% 29.94 in - WSW 4.6 mph - N/A   Clear
7:51 PM 59.0 °F - 48.9 °F 69% 29.96 in 10.0 mi SW 4.6 mph - N/A   Clear
8:51 PM 62.1 °F - 48.9 °F 62% 29.96 in 10.0 mi Calm Calm - N/A   Clear
9:51 PM 61.0 °F - 50.0 °F 67% 29.96 in - Calm Calm - N/A   Partly Cloudy
10:51 PM 60.1 °F - 52.0 °F 75% 29.96 in - Calm Calm - N/A   Scattered Clouds
11:51 PM 57.9 °F - 53.1 °F 84% 29.98 in - Calm Calm - 0.00 in Rain Light Rain